Overview Statistics Trail Chart Weather Telemetry Raw packets
 

This is the latest recevied weather packets stored in our database for station/object KE5QKR. If no packets are shown the sender has not sent any weather packets the latest 10 day(s).

<< 37 38 39 40 41 42 43 >>
Time Temp. Humidity Pressure Rain* Wind** Luminosity Snow
1777733893 15.56° C 88% 1014.6 hPa 0 mm - 149 W/m² -
1777733589 15.56° C 88% 1014.7 hPa 0 mm - 669 W/m² -
1777733286 15.56° C 88% 1014.5 hPa 0 mm - 699 W/m² -
1777732983 15.56° C 89% 1014.3 hPa 0 mm - 565 W/m² -
1777732678 15.56° C 89% 1014.1 hPa 0 mm - 282 W/m² -
1777732376 15° C 89% 1014.5 hPa 0 mm - 125 W/m² -
1777732074 15° C 90% 1014.3 hPa 1.78 mm - 559 W/m² -
1777731770 15° C 91% 1014.4 hPa 1.78 mm - 523 W/m² -
1777731467 14.44° C 92% 1014.4 hPa 0 mm - 485 W/m² -
1777731166 14.44° C 93% 1014.4 hPa 0 mm - 509 W/m² -
1777730863 14.44° C 93% 1014.3 hPa 0 mm - 355 W/m² -
1777730561 13.89° C 94% 1014.4 hPa 0 mm - 349 W/m² -
1777730256 13.89° C 94% 1014.3 hPa 0 mm - 145 W/m² -
1777729953 13.33° C 94% 1014.6 hPa 0 mm - 152 W/m² -
1777729649 13.33° C 95% 1014.6 hPa 0 mm - 198 W/m² -
1777729346 13.33° C 95% 1014.5 hPa 0 mm - 250 W/m² -
1777729043 12.78° C 96% 1014.7 hPa 0 mm - 158 W/m² -
1777728739 12.78° C 96% 1014.6 hPa 0 mm - 130 W/m² -
1777728436 12.78° C 97% 1014.5 hPa 0 mm - 130 W/m² -
1777728133 12.78° C 97% 1014.4 hPa 0 mm - 113 W/m² -
1777727830 12.22° C 98% 1014.5 hPa 0 mm - 83 W/m² -
1777727528 12.22° C 98% 1014.5 hPa 0 mm - 66 W/m² -
1777727225 12.22° C 99% 1014.4 hPa 0 mm - 63 W/m² -
1777726922 11.67° C 99% 1014.2 hPa 0 mm - 43 W/m² -
1777726618 11.67° C 99% 1013.7 hPa 0 mm - 46 W/m² -

* Rain latest hour (hover to see other rain measurements)
** Current wind speed in m/s (hover to see current wind gust speed)